CW1773 Weather Reports


Display with metric or nautical units.
time (UTC)temp
F
wind
direction
speed
MPH
gust
MPH
rain 1hr
in
rain 24hr
in
rain mn
in
humidity
%
barometer
mb
20190325181009 36 340 8.0 8.0 0.00 0.00 0.00 23 1016.6
20190325180009 37 200 1.0 5.0 0.00 0.00 0.00 23 1016.6
20190325175010 35 237 1.0 6.0 0.00 0.00 0.00 23 1016.9
20190325174009 34 329 11.0 19.0 0.00 0.00 0.00 21 1017.0
20190325173010 35 256 5.0 7.0 0.00 0.00 0.00 23 1017.0
20190325172009 35 352 3.0 12.0 0.00 0.00 0.00 22 1017.0
20190325171010 35 359 0.0 1.0 0.00 0.00 0.00 26 1017.0
20190325170010 34 123 2.0 4.0 0.00 0.00 0.00 24 1017.0
20190325165010 34 354 1.0 2.0 0.00 0.00 0.00 25 1017.0
20190325164012 35 76 2.0 5.0 0.00 0.00 0.00 28 1017.0
20190325163009 34 154 1.0 4.0 0.00 0.00 0.00 26 1017.0
20190325162010 35 38 2.0 5.0 0.00 0.00 0.00 27 1017.2
20190325161010 34 76 2.0 8.0 0.00 0.00 0.00 26 1017.2
20190325160009 34 305 5.0 5.0 0.00 0.00 0.00 25 1017.2
20190325155010 33 284 2.0 4.0 0.00 0.00 0.00 26 1017.3
20190325154009 33 333 4.0 7.0 0.00 0.00 0.00 28 1017.5
20190325153010 34 296 4.0 8.0 0.00 0.00 0.00 26 1017.5
20190325152610 33 45 2.0 8.0 0.00 0.00 0.00 27 1017.4
20190325151016 32 179 5.0 5.0 0.00 0.00 0.00 26 1017.4
20190325150028 32 52 2.0 8.0 0.00 0.00 0.00 28 1017.4
20190325144958 31 277 3.0 7.0 0.00 0.00 0.00 28 1017.5
20190325143958 32 329 2.0 6.0 0.00 0.00 0.00 28 1017.7
20190325143028 31 337 0.0 3.0 0.00 0.00 0.00 30 1017.7
20190325141958 30 295 0.0 1.0 0.00 0.00 0.00 33 1017.9
20190325141001 31 313 7.0 7.0 0.00 0.00 0.00 30 1017.8
20190325140028 30 185 2.0 2.0 0.00 0.00 0.00 38 1017.8
20190325134958 30 175 2.0 3.0 0.00 0.00 0.00 32 1018.0
20190325134159 29 0 2.0 8.0 0.00 0.00 0.00 34 1017.9
20190325133009 29 128 1.0 4.0 0.00 0.00 0.00 36 1017.9
20190325132009 30 304 3.0 5.0 0.00 0.00 0.00 40 1017.9
20190325131009 30 354 2.0 3.0 0.00 0.00 0.00 42 1017.9
20190325130009 29 353 1.0 4.0 0.00 0.00 0.00 40 1017.9
20190325125009 30 49 2.0 7.0 0.00 0.00 0.00 42 1017.7
20190325124009 29 315 0.0 11.0 0.00 0.00 0.00 40 1017.4
20190325123009 29 226 5.0 5.0 0.00 0.00 0.00 48 1017.4
20190325122009 27 196 2.0 3.0 0.00 0.00 0.00 52 1017.5
20190325121009 28 157 2.0 2.0 0.00 0.00 0.00 55 1017.4
20190325120009 26 102 0.0 0.0 0.00 0.00 0.00 63 1017.3
20190325115009 26 171 0.0 2.0 0.00 0.00 0.00 70 1017.3
20190325114009 24 171 1.0 2.0 0.00 0.00 0.00 81 1017.2
20190325113009 22 304 0.0 0.0 0.00 0.00 0.00 83 1017.1
20190325112009 21 304 0.0 0.0 0.00 0.00 0.00 81 1016.9
20190325111009 21 304 0.0 0.0 0.00 0.00 0.00 80 1016.8
20190325110009 21 304 0.0 0.0 0.00 0.00 0.00 79 1016.8
20190325105013 22 305 0.0 0.0 0.00 0.00 0.00 77 1016.7
20190325104540 23 0 0.0 0.0 0.00 0.00 0.00 76 1016.4
20190325103144 23 0 0.0 0.0 0.00 0.00 0.00 74 1016.4
20190325102003 24 304 0.0 0.0 0.00 0.00 0.00 72 1016.3
20190325101002 24 305 0.0 0.0 0.00 0.00 0.00 70 1015.8
20190325100002 25 305 0.0 0.0 0.00 0.00 0.00 68 1015.9
20190325095002 25 305 0.0 0.0 0.00 0.00 0.00 66 1015.8
20190325094833 26 315 0.0 5.0 0.00 0.00 0.00 65 1015.7
20190325093020 26 305 0.0 0.0 0.00 0.00 0.00 63 1015.7
20190325092023 26 305 0.0 0.0 0.00 0.00 0.00 62 1015.6
20190325091020 27 304 0.0 1.0 0.00 0.00 0.00 60 1015.5
20190325090020 27 323 0.0 0.0 0.00 0.00 0.00 62 1015.5
20190325085020 28 313 0.0 0.0 0.00 0.00 0.00 66 1015.5
20190325084020 28 306 4.0 5.0 0.00 0.00 0.00 65 1015.3
20190325083020 29 58 0.0 0.0 0.00 0.00 0.00 68 1015.4
20190325082020 29 56 0.0 0.0 0.00 0.00 0.00 70 1015.2
20190325081020 29 103 2.0 5.0 0.00 0.00 0.00 70 1014.8
20190325080020 30 99 0.0 1.0 0.00 0.00 0.00 73 1014.8
20190325075020 30 69 0.0 6.0 0.00 0.00 0.00 76 1014.4
20190325074020 31 285 0.0 0.0 0.00 0.00 0.00 81 1014.2
20190325073021 31 315 0.0 2.0 0.00 0.00 0.00 81 1014.2
20190325072250 31 225 1.0 7.0 0.00 0.00 0.00 82 1014.1
20190325070958 31 215 0.0 0.0 0.00 0.00 0.00 84 1014.1
20190325070530 31 203 0.0 2.0 0.00 0.00 0.00 85 1014.1
20190325065002 31 217 0.0 0.0 0.00 0.00 0.00 87 1014.1
20190325064001 31 217 0.0 0.0 0.00 0.00 0.00 88 1013.9
20190325063001 31 217 0.0 0.0 0.00 0.00 0.00 89 1013.9
20190325062002 31 234 0.0 1.0 0.00 0.00 0.00 91 1013.7
20190325061002 32 287 0.0 0.0 0.00 0.00 0.00 92 1013.8
20190325060002 32 232 1.0 3.0 0.00 0.00 0.00 93 1013.8
20190325055003 32 232 0.0 0.0 0.00 0.00 0.00 94 1013.6
20190325054001 32 328 1.0 5.0 0.00 0.00 0.00 95 1013.4
20190325053001 32 322 0.0 0.0 0.00 0.00 0.00 96 1013.4
20190325052002 32 322 0.0 0.0 0.00 0.00 0.00 95 1013.4
20190325051001 32 322 0.0 0.0 0.00 0.00 0.00 95 1013.3
20190325050001 32 322 0.0 0.0 0.00 0.00 0.00 95 1013.3
20190325045002 32 322 0.0 0.0 0.00 0.00 0.00 94 1013.1
20190325044001 32 322 0.0 0.0 0.00 0.00 0.00 94 1012.8
20190325043001 32 322 0.0 0.0 0.00 0.00 0.00 95 1012.8
20190325042005 31 322 0.0 0.0 0.00 0.00 0.00 95 1012.6
20190325041001 31 322 0.0 0.0 0.00 0.00 0.00 95 1012.6
20190325040031 31 322 0.0 0.0 0.00 0.00 0.00 94 1012.6
20190325035002 31 322 0.0 0.0 0.00 0.00 0.00 94 1012.2
20190325034001 31 322 0.0 0.0 0.00 0.00 0.00 94 1012.1
20190325033001 31 322 0.0 0.0 0.00 0.00 0.00 94 1012.1
20190325032001 31 322 0.0 0.0 0.00 0.00 0.00 93 1011.9
20190325031533 31 315 0.0 0.0 0.00 0.00 0.00 93 1012.0
20190325031504 36 315 0.0 0.0 0.00 0.00 0.00 83 1010.8
20190324213006 49 344 0.0 0.0 0.00 0.00 0.00 42 1009.6
20190324212006 49 243 2.0 6.0 0.00 0.00 0.00 41 1009.6
20190324211006 49 336 2.0 3.0 0.00 0.00 0.00 40 1009.8
20190324210006 49 233 2.0 2.0 0.00 0.00 0.00 39 1009.8
20190324205007 49 209 1.0 6.0 0.00 0.00 0.00 39 1009.8
20190324204006 49 185 0.0 0.0 0.00 0.00 0.00 41 1009.9
20190324203006 49 337 1.0 4.0 0.00 0.00 0.00 42 1009.9
20190324202006 49 251 1.0 6.0 0.00 0.00 0.00 41 1009.8
20190324201006 49 230 2.0 5.0 0.00 0.00 0.00 41 1009.9
20190324200006 49 313 1.0 5.0 0.00 0.00 0.00 39 1009.9
20190324195006 49 306 2.0 3.0 0.00 0.00 0.00 41 1010.4
20190324194006 49 322 3.0 6.0 0.00 0.00 0.00 40 1010.5
20190324193006 49 342 0.0 0.0 0.00 0.00 0.00 40 1010.5
20190324192006 49 51 1.0 3.0 0.00 0.00 0.00 42 1010.6
20190324191006 49 320 0.0 0.0 0.00 0.00 0.00 39 1010.7
20190324190006 48 320 0.0 1.0 0.00 0.00 0.00 41 1010.6
20190324185007 48 237 1.0 5.0 0.00 0.00 0.00 41 1011.0
20190324184007 49 217 4.0 8.0 0.00 0.00 0.00 39 1011.2
20190324183006 49 203 0.0 2.0 0.00 0.00 0.00 43 1011.2
20190324182006 48 313 1.0 6.0 0.00 0.00 0.00 38 1011.2